Flag for Austria Weather past 2 weeks in Graz, Styria, Austria

Now
72 °F

Passing clouds.


Feels Like: 77 °F
Forecast: 45 / 73 °F
Wind: 5 mph from North

Location: Graz-Thalerhof-Flughafen

Current Time: Jul 31, 2015 at 2:21:23 PM

Latest Report: Jul 31, 2015 at 1:50 PM


Visibility: N/A

Pressure: 30.07 "Hg

Humidity: 44%

Dew point: 48 °F

Location of GrazLocation

Historic Weather in Graz — Graph

°F

Graz temperature yesterday

Maximum temperature yesterday: 61 °F (at 12:20 AM)
Minimum temperature yesterday: 59 °F (at 5:50 AM)
Average temperature yesterday: 60 °F

Past Weeks' High & Low Weather Summary

 TemperatureHumidityPressure
High93 °F (Jul 19, 4:50 PM)100% (Jul 17, 4:50 AM)30.15 "Hg (Jul 17, 4:50 AM)
Low57 °F (Jul 31, 6:50 AM)39% (Jul 19, 4:50 PM)29.77 "Hg (Jul 25, 4:50 AM)
Average71 °F78%29.95 "Hg
* Reported Jul 16 12:20 PM — Jul 31 12:50 PM, Graz, Weather by CustomWeather, © 2015

Note: Actual official high and low records may vary slightly from our data, if they occured in-between our weather recording intervals... More about our weather records

Advertising

Graz weather history for previous 24 hours

 ConditionsComfort  
Time TempWeatherWind HumidityBarometerVisibility
12:50 PM
Fri, Jul 31
72 °FPassing clouds.5 mph44%30.07 "HgN/A
12:20 PM70 °FPassing clouds.5 mph50%30.07 "HgN/A
11:50 AM70 °FScattered clouds.3 mph50%30.07 "HgN/A
11:20 AM68 °FScattered clouds.3 mph56%30.09 "HgN/A
10:50 AM66 °FScattered clouds.3 mph60%30.09 "HgN/A
10:20 AM66 °FScattered clouds.3 mph64%30.09 "HgN/A
9:50 AM64 °FPartly sunny.3 mph64%30.09 "HgN/A
9:20 AM63 °FPartly sunny.5 mph68%30.09 "HgN/A
8:50 AM61 °FPartly sunny.2 mph72%30.07 "HgN/A
8:20 AM59 °FPartly sunny.3 mph77%30.07 "HgN/A
7:50 AM57 °FPartly sunny.5 mph82%30.07 "HgN/A
7:20 AM57 °FPartly sunny.3 mph82%30.07 "HgN/A
6:50 AM57 °FLight rain. Partly sunny.7 mph82%30.07 "HgN/A
6:20 AM59 °FLight rain. Passing clouds.8 mph77%30.07 "HgN/A
5:20 AM61 °FOvercast.5 mph68%30.04 "HgN/A
4:50 AM61 °FOvercast.6 mph77%30.04 "HgN/A
4:20 AM61 °FOvercast.6 mph72%30.04 "HgN/A
3:50 AM59 °FOvercast.2 mph82%30.04 "HgN/A
3:20 AM61 °FOvercast.8 mph72%30.01 "HgN/A
2:50 AM61 °FCool.6 mph77%30.01 "HgN/A
2:20 AM61 °FPassing clouds.5 mph83%30.04 "HgN/A
1:50 AM59 °FOvercast.2 mph94%30.04 "HgN/A
1:20 AM61 °FPassing clouds.1 mph88%30.04 "HgN/A
12:50 AM61 °FPassing clouds.5 mph88%30.01 "HgN/A
11:50 PM
Thu, Jul 30
61 °FPassing clouds.3 mph88%30.01 "HgN/A
11:20 PM61 °FPartly cloudy.3 mph88%30.01 "HgN/A
10:50 PM61 °FPartly cloudy.3 mph88%30.04 "HgN/A
10:20 PM61 °FPartly cloudy.2 mph88%30.01 "HgN/A
9:50 PM61 °FPassing clouds.2 mph88%30.01 "HgN/A
9:20 PM61 °FPartly sunny.2 mph88%30.01 "HgN/A
8:50 PM61 °FPartly sunny.3 mph88%30.01 "HgN/A
8:20 PM61 °FPartly sunny.2 mph83%30.01 "HgN/A
7:50 PM61 °FPartly sunny.1 mph83%30.01 "HgN/A
7:20 PM61 °FPartly sunny.1 mph83%29.98 "HgN/A
6:50 PM61 °FBroken clouds.2 mph83%30.01 "HgN/A
6:20 PM61 °FBroken clouds.2 mph77%30.01 "HgN/A
5:50 PM61 °FBroken clouds.2 mph77%30.01 "HgN/A
5:20 PM61 °FBroken clouds.3 mph77%30.01 "HgN/A
4:50 PM61 °FBroken clouds.3 mph77%30.01 "HgN/A
4:20 PM61 °FBroken clouds.2 mph77%30.01 "HgN/A
3:50 PM59 °FBroken clouds.3 mph88%30.01 "HgN/A
3:20 PM59 °FBroken clouds.5 mph88%30.01 "HgN/A
2:50 PM59 °FBroken clouds.6 mph88%30.01 "HgN/A
2:20 PM59 °FBroken clouds.6 mph88%30.01 "HgN/A
Weather by CustomWeather, © 2015

See weather overviewHow to use our weather pages